Weather History for Whiting Fld NAS, FL

Change the Weather History Date:

Wednesday, April 9, 2014

  Actual Average Record
Temperature  
Mean Temperature 60 °F -  
Max Temperature 72 °F 73 °F 91 °F (2011)
Min Temperature 48 °F 54 °F 45 °F (2007)
Degree Days  
Heating Degree Days 5    
Growing Degree Days 10 (Base 50)    
Moisture  
Dew Point 43 °F    
Average Humidity 63    
Maximum Humidity 89    
Minimum Humidity 26    
Precipitation  
Precipitation 0.00 in - - ()
Sea Level Pressure  
Sea Level Pressure 30.08 in    
Wind  
Wind Speed 9 mph (NW)    
Max Wind Speed 17 mph    
Max Gust Speed 25 mph    
Visibility 10 miles    
Events      
Averages and records for this station are not official NWS values.
T = Trace of Precipitation, MM = Missing Value Source: NWS Daily Summary

Daily Weather History Graph

Daily Weather History Graph

Search for Another Location

Airport:

Trip Planner

Search our weather history database for the weather conditions in past years. The results will help you decide how hot, cold, wet, or windy it might be!

Date:

Astronomy

Apr. 09, 2014 Rise Set
Actual Time 6:27 AM CDT 7:12 PM CDT
Civil Twilight 6:02 AM CDT 7:36 PM CDT
Nautical Twilight 5:34 AM CDT 8:05 PM CDT
Astronomical Twilight 5:04 AM CDT 8:35 PM CDT
Moon 2:19 PM CDT (4/9) 2:55 AM CDT (4/9)
Length of Visible Light 13h 33m
Length of Day
12h 44m
Waxing Gibbous, 72% of the Moon is Illuminated
Apr 9
Waxing Gibbous
Apr 15
Full
Apr 22
Last Quarter
Apr 29
New
May 6
First Quarter

Hourly Weather History & Observations

Time (CDT) Temp. Dew Point Humidity Pressure Visibility Wind Dir Wind Speed Gust Speed Precip Events Conditions
12:56 AM 53.1 °F 48.9 °F 86% 29.91 in 10.0 mi NW 11.5 mph - N/A   Partly Cloudy
1:45 AM 53.1 °F 48.0 °F 83% 29.97 in 10.0 mi NW 10.4 mph - N/A   Mostly Cloudy
1:56 AM 53.1 °F 48.0 °F 83% 29.93 in 10.0 mi NW 10.4 mph - N/A   Mostly Cloudy
2:56 AM 53.1 °F 46.9 °F 80% 29.94 in 10.0 mi NNW 11.5 mph 21.9 mph N/A   Overcast
3:36 AM 52.0 °F 46.0 °F 80% 29.99 in 10.0 mi NW 9.2 mph - N/A   Scattered Clouds
3:56 AM 52.0 °F 46.0 °F 80% 29.95 in 10.0 mi NNW 8.1 mph - N/A   Partly Cloudy
4:56 AM 50.0 °F 45.0 °F 83% 29.99 in 10.0 mi WNW 5.8 mph - N/A   Scattered Clouds
5:56 AM 48.9 °F 45.0 °F 86% 30.02 in 9.0 mi WNW 9.2 mph - N/A   Scattered Clouds
6:56 AM 48.0 °F 45.0 °F 89% 30.07 in 7.0 mi West 8.1 mph - N/A   Scattered Clouds
7:56 AM 52.0 °F 46.0 °F 80% 30.09 in 9.0 mi NW 13.8 mph 18.4 mph N/A   Partly Cloudy
8:56 AM 54.0 °F 46.0 °F 75% 30.12 in 10.0 mi NNW 13.8 mph 19.6 mph N/A   Mostly Cloudy
9:07 AM 55.0 °F 46.0 °F 72% 30.16 in 10.0 mi NNW 9.2 mph 18.4 mph N/A   Partly Cloudy
9:56 AM 57.9 °F 46.0 °F 65% 30.14 in 10.0 mi NNW 10.4 mph 17.3 mph N/A   Partly Cloudy
10:56 AM 62.1 °F 44.1 °F 52% 30.16 in 10.0 mi NNW 10.4 mph 19.6 mph N/A   Partly Cloudy
11:56 AM 66.0 °F 44.1 °F 45% 30.14 in 10.0 mi NNW 12.7 mph 21.9 mph N/A   Scattered Clouds
12:56 PM 68.0 °F 42.1 °F 39% 30.13 in 10.0 mi NNW 17.3 mph 25.3 mph N/A   Scattered Clouds
1:56 PM 69.1 °F 39.0 °F 33% 30.11 in 10.0 mi North 11.5 mph 23.0 mph N/A   Partly Cloudy
2:56 PM 71.1 °F 37.0 °F 29% 30.10 in 10.0 mi North 8.1 mph 20.7 mph N/A   Partly Cloudy
3:56 PM 71.1 °F 36.0 °F 28% 30.09 in 10.0 mi NNW 10.4 mph - N/A   Partly Cloudy
4:56 PM 72.0 °F 35.1 °F 26% 30.08 in 10.0 mi North 11.5 mph 17.3 mph N/A   Clear
5:56 PM 70.0 °F 35.1 °F 28% 30.09 in 10.0 mi NNW 5.8 mph - N/A   Clear
6:56 PM 66.0 °F 37.0 °F 34% 30.10 in 10.0 mi NNW 4.6 mph - N/A   Clear
7:56 PM 57.0 °F 39.9 °F 53% 30.12 in 10.0 mi NW 3.5 mph - N/A   Clear
8:56 PM 52.0 °F 41.0 °F 66% 30.14 in 10.0 mi NNW 3.5 mph - N/A   Clear
9:56 PM 50.0 °F 41.0 °F 71% 30.16 in 10.0 mi Calm Calm - N/A   Clear
10:45 PM 48.9 °F 41.0 °F 74% 30.20 in 10.0 mi Calm Calm - N/A   Clear
10:56 PM 48.9 °F 41.0 °F 74% 30.17 in 10.0 mi Calm Calm - N/A   Clear
11:56 PM 48.0 °F 41.0 °F 77% 30.17 in 10.0 mi Calm Calm - 0.00 in   Clear